Powrót do katalogu

STARLINK-37908

AktywnyŁącznośćSSO
NORAD 69688·PAYLOAD·🇺🇸 United States

Wystrzelony Jun 25, 2026 z Vandenberg Space Force Base

Loading…

Następne Przeloty (najbliższe 24 godziny)

TLE

ŚwieżeSource: CelesTrak SupGP

Epoka: Sep 15, 2026, 03:32 UTC

1 69688C 26145M   26258.14770833 -.00036313  00000+0 -11272-2 0  2581
2 69688  97.2844 104.8941 0001789  92.5321 253.6872 15.33458985    12

Śledź STARLINK-37908 w czasie rzeczywistym z AllMySat

Download on the App Store